Regional Weather Roundup
Issued by NWS Sterling, VA

Current Version | Previous Version | Text Only | Print | Product List | Glossary On
Versions: 1 2 3 4 5 6 7 8 9 10 11 12 13 14 15 16 17 18 19 20 21 22 23 24 25 26 27 28 29 30 31 32 33 34 35 36 37 38 39 40 41 42 43 44 45 46 47 48 49 50
000
ASUS41 KLWX 290010
RWRLWX

REGIONAL WEATHER ROUNDUP
NATIONAL WEATHER SERVICE BALTIMORE MD/WASHINGTON DC
800 PM EDT THU JUL 28 2016

Note: "FAIR" indicates few or no clouds below 12,000 feet
with no significant weather and/or obstructions to visibility.
 TC=TEMPERATURE CELSIUS

 * =Non NWS site. Station does not report precipitation (e.g. rain,
    snow, etc.), thunder, or fog.

DCZ001-MDZ009-015-VAZ040>042-051-053>054-290100-
WASHINGTON METRO

CITY           SKY/WX    TMP DP  RH WIND       PRES   REMARKS
WASHINGTON NAT MOCLDY    80  72  76 NE15      29.85R
DULLES         CLOUDY    76  72  87 NE9       29.85S
QUANTICO       TSTM      80  74  81 NE15      29.81S
LEESBURG*      CLOUDY    77  77 100 N6        29.88R
MANASSAS*      CLOUDY    79  72  78 E6        29.84R
GAITHERSBURG*  CLOUDY    73  70  88 CALM      29.91R

$$

MDZ006>007-011-014-290100-
BALTIMORE METRO

CITY           SKY/WX    TMP DP  RH WIND       PRES   REMARKS
BWI AIRPORT    CLOUDY    76  72  87 NE9       29.85R
MD SCIENCE CTR   N/A     76  72  87 MISG      29.87R
MARTIN STATE   CLOUDY    77  75  94 CALM      29.87R
ANNAPOLIS      CLOUDY    79  76  90 SE17      29.87R
FORT MEADE*    CLOUDY    73  72  94 E6        29.88R

$$

MDZ012-015-019>023-290100-
MARYLAND EASTERN SHORE

CITY           SKY/WX    TMP DP  RH WIND       PRES   REMARKS
OCEAN CITY       N/A    N/A N/A N/A MISG      29.86R
SALISBURY      NOT AVBL
BAY BRIDGE AP* CLOUDY    77  73  88 SE9       29.86R
CAMBRIDGE*     CLOUDY    72  72 100 E3        29.88S
EASTON*        CLOUDY    75  75 100 SE7       29.91R

$$

MDZ017>025-290100-
SOUTHERN MARYLAND

CITY           SKY/WX    TMP DP  RH WIND       PRES   REMARKS
PATUXENT RIVER LGT RAIN  77  73  87 SE5       29.85F
ST INIGOES     CLOUDY    76  74  93 NE8       29.84R THUNDER
LEONARDTOWN*   CLOUDY    73  72  94 E3        29.87S

$$

MDZ003>005-290100-
NORTH CENTRAL MARYLAND

CITY           SKY/WX    TMP DP  RH WIND       PRES   REMARKS
FREDERICK*     CLOUDY    75  75 100 NE5       29.89R FOG
HAGERSTOWN APT LGT RAIN  72  68  87 NW5       29.89F FOG

$$

MDZ501>502-290100-
WESTERN MARYLAND

CITY           SKY/WX    TMP DP  RH WIND       PRES   REMARKS
OAKLAND*       CLOUDY    63  63 100 SE3       29.99R FOG
CUMBERLAND*    CLOUDY    72  72 100 CALM      29.93F

$$

VAZ025>031-290100-
SHENANDOAH VALLEY

CITY           SKY/WX    TMP DP  RH WIND       PRES   REMARKS
WINCHESTER*    RAIN      72  70  94 NW5       29.91R
FRONT ROYAL*   CLOUDY    70  70 100 NE3       29.87F
LURAY*         CLOUDY   N/A N/A N/A CALM      29.89S
NEW MARKET*    CLOUDY   N/A N/A N/A CALM      29.89R
STAUNTON*      MOCLDY    73  69  85 N12       29.91S
WAYNESBORO*    CLOUDY    73  70  88 N5        29.90S

$$

WVZ021-048>050-054>055-290100-
EASTERN WEST VIRGINIA PANHANDLE

CITY           SKY/WX    TMP DP  RH WIND       PRES   REMARKS
MARTINSBURG    RAIN      72  70  93 N5        29.88F FOG
PETERSBURG*    MOCLDY    72  70  94 CALM      29.91F

$$

VAZ036>039-050-290100-
CENTRAL FOOTHILLS

CITY           SKY/WX    TMP DP  RH WIND       PRES   REMARKS
CHARLOTTESVILL LGT RAIN  81  72  74 N9        29.82R
CULPEPER*      TSTM      75  74  96 N9        29.88R
ORANGE*          N/A     77  77 100 N7        29.84F THUNDER
GORDONSVILLE*  FAIR      78  75  91 N5        29.82S
WARRENTON*     TSTM      77  70  80 N13       29.85R

$$

VAZ055>057-290100-
NORTH AND CENTRAL PIEDMONT

CITY           SKY/WX    TMP DP  RH WIND       PRES   REMARKS
FREDERICKSBRG* FAIR      79  79 100 NE7       29.79F
STAFFORD*      TSTM      77  74  91 NE7G13    29.85F

$$

NCZ024-NYZ072-PAZ021-071-VAZ022-071-290100-
OTHER REGIONAL OBSERVATIONS

CITY           SKY/WX    TMP DP  RH WIND       PRES   REMARKS
NEW YORK CITY  CLOUDY    80  67  64 W7        29.90F
PHILADELPHIA   CLOUDY    76  72  87 SE6       29.87S
PITTSBURGH     CLOUDY    71  66  84 SW3       29.91S
ROANOKE        FAIR      82  74  76 NE6       29.87F
RICHMOND       MOCLDY    89  75  63 SW7       29.79R HX  99
RALEIGH        PTCLDY    91  70  49 SW13      29.83S HX  96

$$

ANZ530>537-290100-
MARINE OBSERVATIONS

STATION/POSITION TIME  TEMP    WIND        PRES
                       AIR SEA DIR/SP/G
                 (UTC) (F)     (DEG/KT/KT) (MB)
THOMAS PT LIGHT  0000   77 84  130/ 18/ 20 1012.5R
BALT KEY BRIDGE  2342           70/  7/ 10 1010.8
COVE POINT       2342          140/ 13/ 17 1011.9
LEWISETTA        2342           80/  7/  8 1010.6
SOLOMONS ISLAND  2348          190/  4/  5   N/A
PINEY POINT      2348           80/  8/ 11   N/A

$$




USA.gov is the U.S. government's official web portal to all federal, state and local government web resources and services.